Flag for U.S.A. Weather past 2 weeks in Hayward, California, U.S.A.

Now
55 °F

Overcast.


Feels Like: 53 °F
Forecast: 56 / 65 °F
Wind: 9 mph from Southwest

Location: Hayward Air Terminal

Current Time: May 23, 2015 at 8:49:00 AM

Latest Report: May 23, 2015 at 8:02 AM


Visibility: 10 mi

Pressure: 30.10 "Hg

Humidity: 77%

Dew point: 48 °F

Location of HaywardLocation

Historic Weather in Hayward — Graph

°F

Hayward temperature yesterday

Maximum temperature yesterday: 63 °F (at 11:54 AM)
Minimum temperature yesterday: 56 °F (at 4:54 AM)
Average temperature yesterday: 59 °F

Past Weeks' High & Low Weather Summary

 TemperatureHumidityPressure
High67 °F (May 8, 2:54 PM)93% (May 21, 7:54 AM)30.15 "Hg (May 21, 7:54 AM)
Low51 °F (May 12, 2:54 AM)48% (May 12, 2:54 PM)29.82 "Hg (May 14, 4:54 PM)
Average57 °F74%30.01 "Hg
* Reported May 8 7:54 AM — May 23 7:54 AM, Hayward, Weather by CustomWeather, © 2015

Note: Actual official high and low records may vary slightly from our data, if they occured in-between our weather recording intervals... More about our weather records

Advertising

Hayward weather history for previous 24 hours

 ConditionsComfort  
Time TempWeatherWind HumidityBarometerVisibility
7:54 AM
Sat, May 23
55 °FOvercast.8 mph80%30.12 "Hg10 mi
6:54 AM55 °FOvercast.8 mph83%30.11 "Hg10 mi
5:54 AM54 °FOvercast.8 mph90%30.09 "Hg7 mi
4:54 AM54 °FOvercast.9 mph90%30.09 "Hg9 mi
3:54 AM56 °FOvercast.7 mph84%30.09 "Hg10 mi
2:54 AM56 °FOvercast.8 mph81%30.10 "Hg10 mi
1:54 AM56 °FOvercast.9 mph81%30.10 "Hg10 mi
12:54 AM57 °FOvercast.7 mph78%30.11 "Hg10 mi
11:54 PM
Fri, May 22
57 °FOvercast.9 mph78%30.11 "Hg10 mi
10:54 PM57 °FOvercast.9 mph78%30.11 "Hg10 mi
9:54 PM57 °FOvercast.12 mph81%30.11 "Hg10 mi
8:54 PM58 °FOvercast.12 mph75%30.09 "Hg10 mi
7:54 PM58 °FOvercast.9 mph75%30.08 "Hg10 mi
6:54 PM59 °FOvercast.14 mph69%30.07 "Hg10 mi
5:54 PM59 °FMore clouds than sun.12 mph75%30.07 "Hg10 mi
4:54 PM60 °FMostly cloudy.13 mph75%30.06 "Hg10 mi
3:54 PM61 °FMostly cloudy.14 mph75%30.06 "Hg10 mi
2:54 PM62 °FOvercast.13 mph70%30.05 "Hg10 mi
1:54 PM62 °FOvercast.9 mph70%30.06 "Hg10 mi
12:54 PM63 °FPartly sunny.14 mph68%30.06 "Hg10 mi
11:54 AM63 °FBroken clouds.10 mph68%30.06 "Hg10 mi
10:54 AM62 °FPartly sunny.9 mph73%30.05 "Hg10 mi
9:54 AM61 °FPartly sunny.9 mph70%30.05 "Hg10 mi
8:54 AM59 °FOvercast.8 mph75%30.05 "Hg10 mi
Weather by CustomWeather, © 2015

See weather overviewHow to use our weather pages